Find OneWeb SL0644

NORAD ID: 55808 Int'l Des: 2023-029 Owner: ONEWEBN Country: UK Constellation: oneweb operational
LEOCIRCULARPOLARONEWEB_TYPE

实时位置

正在加载3D地球...

关于 OneWeb SL0644

正在加载描述...

即将过境

Passes for default location (London). Set your location on the main map for personalized predictions.

高度历史

Loading altitude history...

两行轨道根数

1 55808U 23029N 26124.80212588 .00000119 00000-0 26526-3 0 9996
2 55808 87.9141 313.6319 0001685 77.6187 282.5134 13.19725338153185
Epoch: May 4, 2026 • Age: 10 hours

当前状态

高度 1195.1 km
速度 7.26 km/s
星下点 60.11°N, 167.46°W
发射日期 Mar 9, 2023
运行时间 3.1 years
类型 internet

技术详情

分类 Payload
质量 148.00 kg
干质量 140.00 kg
总质量 148.00 kg
长度 1.30 m
直径 1.00 m
跨度 5.00 m
形状 Trapezoid+2 pan
制造商 ONEWUS
平台类型 ARROW
阶段状态 In Orbit
所有者/国家 ONEWEBN/UK

Most Searched